Mount Airy, NC

4:29 PM EST on December 09, 2019 (GMT -0500)
Mount Airy-Surry County

Weather History for KMWK - November, 2019

Change the Weather History Date:

Thursday, November 21, 2019

  Actual Average (WUND) Record (WUND)
Temperature  
Mean Temperature 43 °F -  
Max Temperature 54 °F - - (-1)
Min Temperature 32 °F - - (-1)
Degree Days  
Heating Degree Days 22    
Moisture  
Dew Point 38 °F    
Average Humidity 79    
Maximum Humidity 94    
Minimum Humidity 59    
Precipitation  
Precipitation 0.00 in - - ()
Sea Level Pressure  
Sea Level Pressure 30.24 in    
Wind  
Wind Speed 1 mph ()    
Max Wind Speed 7 mph    
Max Gust Speed -    
Visibility 10.0 miles    
Events      
Averages and records for this station are not official NWS values.
T = Trace of Precipitation, MM = Missing Value Source: Averaged Metar Reports

Daily Weather History Graph

Daily Weather History Graph

Search for Another Location

Airport or City:

Astronomy

Nov. 21, 2019 Rise Set
Actual Time 7:05 AM EST 5:10 PM EST
Civil Twilight 6:37 AM EST 5:38 PM EST
Nautical Twilight 6:06 AM EST 6:09 PM EST
Astronomical Twilight 5:35 AM EST 6:40 PM EST
Moon 1:12 AM EST (11/21) 2:27 PM EST (11/21)
Length of Visible Light 11h 00m
Length of Day
10h 04m
Waning Crescent, 30% of the Moon is Illuminated
Nov 21
Waning Crescent
Nov 26
New
Dec 4
First Quarter
Dec 12
Full
Dec 18
Last Quarter

Hourly Weather History & Observations

Time (EST) Temp. Windchill Dew Point Humidity Pressure Visibility Wind Dir Wind Speed Gust Speed Precip Events Conditions
12:15 AM 40.5 °F - 35.2 °F 82% 30.28 in 10.0 mi Calm Calm - N/A   Clear
12:35 AM 40.1 °F - 35.1 °F 82% 30.29 in 10.0 mi Calm Calm - N/A   Clear
12:55 AM 38.8 °F 36.5 °F 34.9 °F 86% 30.28 in 10.0 mi North 3.5 mph - N/A   Clear
1:15 AM 38.3 °F - 34.5 °F 86% 30.29 in 10.0 mi Calm Calm - N/A   Clear
1:55 AM 35.8 °F - 32.9 °F 89% 30.29 in 10.0 mi Calm Calm - N/A   Clear
2:15 AM 36.0 °F - 33.1 °F 89% 30.28 in 10.0 mi Calm Calm - N/A   Clear
2:35 AM 36.0 °F - 33.3 °F 90% 30.29 in 10.0 mi Calm Calm - N/A   Clear
3:15 AM 34.7 °F - 32.2 °F 91% 30.28 in 10.0 mi Calm Calm - N/A   Clear
3:35 AM 34.2 °F - 32.2 °F 92% 30.28 in 10.0 mi Calm Calm - N/A   Clear
3:55 AM 33.8 °F - 31.8 °F 92% 30.27 in 10.0 mi Calm Calm - N/A   Clear
4:15 AM 33.8 °F - 32.0 °F 93% 30.28 in 10.0 mi Calm Calm - N/A   Clear
4:35 AM 34.3 °F - 32.0 °F 91% 30.27 in 10.0 mi Calm Calm - N/A   Clear
5:15 AM 33.6 °F - 32.0 °F 94% 30.27 in 10.0 mi Calm Calm - N/A   Clear
5:35 AM 34.9 °F 30.8 °F 32.4 °F 91% 30.28 in 10.0 mi West 4.6 mph - N/A   Clear
5:55 AM 34.5 °F - 32.4 °F 92% 30.29 in 10.0 mi Calm Calm - N/A   Clear
6:35 AM 33.8 °F - 32.0 °F 93% 30.30 in 10.0 mi Calm Calm - N/A   Clear
6:55 AM 33.1 °F - 31.5 °F 94% 30.31 in 10.0 mi Calm Calm - N/A   Clear
7:15 AM 32.0 °F - 30.2 °F 93% 30.31 in 10.0 mi Calm Calm - N/A   Clear
7:35 AM 32.4 °F - 30.9 °F 94% 30.31 in 10.0 mi Calm Calm - N/A   Clear
7:55 AM 33.8 °F - 32.0 °F 93% 30.31 in 10.0 mi Calm Calm - N/A   Clear
8:15 AM 36.9 °F - 34.2 °F 90% 30.30 in 10.0 mi Calm Calm - N/A   Clear
9:15 AM 44.8 °F - 38.8 °F 80% 30.31 in 10.0 mi Calm Calm - N/A   Clear
9:35 AM 44.8 °F - 38.7 °F 79% 30.31 in 10.0 mi Calm Calm - N/A   Clear
9:55 AM 46.6 °F - 38.7 °F 74% 30.32 in 10.0 mi Calm Calm - N/A   Clear
10:15 AM 48.0 °F - 39.2 °F 72% 30.31 in 10.0 mi SSE 6.9 mph - N/A   Clear
10:35 AM 48.2 °F - 39.4 °F 72% 30.31 in 10.0 mi Calm Calm - N/A   Clear
10:55 AM 49.5 °F - 39.2 °F 68% 30.30 in 10.0 mi Calm Calm - N/A   Clear
11:15 AM 50.2 °F - 38.7 °F 65% 30.29 in 10.0 mi South 3.5 mph - N/A   Clear
11:35 AM 50.9 °F - 38.7 °F 63% 30.27 in 10.0 mi SSE 5.8 mph - N/A   Clear
11:55 AM 51.1 °F - 38.5 °F 62% 30.27 in 10.0 mi SW 5.8 mph - N/A   Clear
12:15 PM 52.5 °F - 39.7 °F 62% 30.25 in 10.0 mi SSW 5.8 mph - N/A   Clear
12:35 PM 54.3 °F - 40.8 °F 60% 30.24 in 10.0 mi SSW 4.6 mph - N/A   Clear
1:15 PM 54.0 °F - 40.1 °F 59% 30.23 in 10.0 mi SSW 3.5 mph - N/A   Clear
1:55 PM 53.6 °F - 39.9 °F 60% 30.22 in 10.0 mi SSW 4.6 mph - N/A   Clear
2:15 PM 54.0 °F - 40.5 °F 60% 30.21 in 10.0 mi Calm Calm - N/A   Clear
2:35 PM 53.6 °F - 39.9 °F 60% 30.20 in 10.0 mi SSE 3.5 mph - N/A   Clear
2:55 PM 53.6 °F - 39.6 °F 59% 30.20 in 10.0 mi Calm Calm - N/A   Clear
3:15 PM 53.6 °F - 40.1 °F 60% 30.21 in 10.0 mi West 3.5 mph - N/A   Clear
3:35 PM 54.0 °F - 40.3 °F 60% 30.21 in 10.0 mi Calm Calm - N/A   Clear
4:15 PM 54.0 °F - 40.6 °F 61% 30.20 in 10.0 mi Calm Calm - N/A   Clear
4:35 PM 54.1 °F - 40.6 °F 60% 30.20 in 10.0 mi Calm Calm - N/A   Clear
4:55 PM 53.6 °F - 40.8 °F 62% 30.20 in 10.0 mi Calm Calm - N/A   Clear
5:15 PM 53.6 °F - 41.0 °F 62% 30.19 in 10.0 mi Calm Calm - N/A   Clear
5:35 PM 52.9 °F - 41.0 °F 64% 30.20 in 10.0 mi Calm Calm - N/A   Clear
5:55 PM 50.4 °F - 42.3 °F 74% 30.19 in 10.0 mi Calm Calm - N/A   Clear
6:15 PM 48.7 °F - 41.9 °F 77% 30.19 in 10.0 mi Calm Calm - N/A   Scattered Clouds
6:35 PM 48.6 °F - 41.9 °F 78% 30.19 in 10.0 mi Calm Calm - N/A   Scattered Clouds
6:55 PM 48.4 °F - 42.1 °F 79% 30.19 in 10.0 mi Calm Calm - N/A   Clear
7:15 PM 48.2 °F - 42.1 °F 79% 30.19 in 10.0 mi Calm Calm - N/A   Scattered Clouds
7:35 PM 47.7 °F - 42.3 °F 82% 30.18 in 10.0 mi Calm Calm - N/A   Scattered Clouds
7:55 PM 49.6 °F - 42.4 °F 76% 30.18 in 10.0 mi Calm Calm - N/A   Scattered Clouds
8:15 PM 49.1 °F - 42.1 °F 77% 30.19 in 10.0 mi Calm Calm - N/A   Scattered Clouds
8:35 PM 46.6 °F - 41.9 °F 84% 30.18 in 10.0 mi Calm Calm - N/A   Clear
8:55 PM 46.2 °F - 41.7 °F 84% 30.17 in 10.0 mi Calm Calm - N/A   Clear
9:15 PM 46.0 °F - 41.5 °F 84% 30.17 in 10.0 mi Calm Calm - N/A   Scattered Clouds
9:35 PM 45.5 °F - 41.4 °F 85% 30.16 in 10.0 mi Calm Calm - N/A   Clear
9:55 PM 44.6 °F - 41.0 °F 87% 30.16 in 10.0 mi Calm Calm - N/A   Clear
10:15 PM 44.1 °F - 40.6 °F 88% 30.16 in 10.0 mi Calm Calm - N/A   Clear
10:35 PM 42.8 °F - 39.2 °F 87% 30.15 in 10.0 mi Calm Calm - N/A   Clear
10:55 PM 42.1 °F - 39.0 °F 89% 30.14 in 10.0 mi Calm Calm - N/A   Clear
11:15 PM 42.3 °F - 39.2 °F 89% 30.14 in 10.0 mi Calm Calm - N/A   Scattered Clouds
11:55 PM 41.4 °F - 38.8 °F 91% 30.12 in 10.0 mi Calm Calm - N/A   Scattered Clouds